TimeCST,TemperatureF,Dew PointF,Humidity,Sea Level PressureIn,VisibilityMPH,Wind Direction,Wind SpeedMPH,Gust SpeedMPH,PrecipitationIn,Events,Conditions,WindDirDegrees,DateUTC
12:00 AM,62.6,60.8,94,30.33,6.2,North,9.2,-,N/A,,Overcast,360,2013-08-27 06:00:00
1:00 AM,62.6,60.8,94,30.30,6.2,NNE,6.9,-,N/A,,Partly Cloudy,20,2013-08-27 07:00:00
2:00 AM,62.6,59.0,88,30.27,6.2,North,9.2,-,N/A,,Scattered Clouds,360,2013-08-27 08:00:00
3:00 AM,60.8,59.0,94,30.24,6.2,North,13.8,-,N/A,,Mostly Cloudy,360,2013-08-27 09:00:00
4:00 AM,60.8,59.0,94,30.27,6.2,North,9.2,-,N/A,,Scattered Clouds,360,2013-08-27 10:00:00
5:00 AM,62.6,60.8,94,30.24,6.2,North,6.9,-,N/A,,Mostly Cloudy,360,2013-08-27 11:00:00
6:00 AM,61,59,91,29.95,25,North,9.2,,,,Scattered Clouds,0,2013-08-27 12:00:00
6:00 AM,60.8,59.0,94,30.27,6.2,North,9.2,-,N/A,,Scattered Clouds,360,2013-08-27 12:00:00
7:00 AM,60.8,59.0,94,30.27,6.2,North,9.2,-,N/A,,Scattered Clouds,360,2013-08-27 13:00:00
8:00 AM,66.2,60.8,83,30.27,-9999.0,NNE,16.1,-,N/A,,Clear,30,2013-08-27 14:00:00
9:00 AM,69.8,57.2,64,30.30,6.2,North,13.8,-,N/A,,Mostly Cloudy,360,2013-08-27 15:00:00
10:00 AM,73.4,59.0,61,30.30,6.2,North,11.5,-,N/A,,Mostly Cloudy,360,2013-08-27 16:00:00
11:00 AM,73.4,60.8,65,30.27,6.2,North,13.8,-,N/A,,Scattered Clouds,360,2013-08-27 17:00:00
12:00 PM,75,62,54,29.93,25,NNE,16.1,,,,Mostly Cloudy,20,2013-08-27 18:00:00
12:00 PM,75.2,60.8,61,30.27,6.2,NNE,16.1,-,N/A,,Mostly Cloudy,20,2013-08-27 18:00:00
1:00 PM,75.2,60.8,61,30.24,6.2,NNE,13.8,-,N/A,,Mostly Cloudy,30,2013-08-27 19:00:00
2:00 PM,77.0,59.0,54,30.21,6.2,North,13.8,-,N/A,,Mostly Cloudy,360,2013-08-27 20:00:00
3:00 PM,77.0,60.8,57,30.18,6.2,NNE,13.8,-,N/A,,Mostly Cloudy,20,2013-08-27 21:00:00
4:00 PM,75.2,60.8,61,30.18,6.2,North,13.8,-,N/A,,Mostly Cloudy,10,2013-08-27 22:00:00
5:00 PM,73.4,60.8,65,30.18,6.2,NNE,13.8,-,N/A,,Mostly Cloudy,30,2013-08-27 23:00:00
6:00 PM,71,61,62,29.91,25,North,26.8,,,,Overcast,0,2013-08-28 00:00:00
6:00 PM,71.6,60.8,69,30.24,6.2,North,13.8,-,N/A,,Overcast,360,2013-08-28 00:00:00
7:00 PM,68.0,62.6,83,30.24,6.2,North,11.5,-,N/A,,Scattered Clouds,360,2013-08-28 01:00:00
7:20 PM,-9999,-9999,N/A,-9999,3.7,North,16.1,-,N/A,Rain,Light Rain,360,2013-08-28 01:20:00
7:35 PM,-9999,-9999,N/A,-9999,6.2,North,11.5,-,N/A,,Light Drizzle,360,2013-08-28 01:35:00
7:45 PM,-9999,-9999,N/A,-9999,3.1,North,13.8,-,N/A,Rain,Rain,360,2013-08-28 01:45:00
8:00 PM,64.4,62.6,94,30.27,3.1,North,11.5,-,N/A,Rain-Thunderstorm,Light Thunderstorms and Rain,360,2013-08-28 02:00:00
8:15 PM,-9999,-9999,N/A,-9999,6.2,North,11.5,-,N/A,,Mostly Cloudy,360,2013-08-28 02:15:00
9:00 PM,64.4,62.6,94,30.30,4.3,North,13.8,-,N/A,,Light Drizzle,360,2013-08-28 03:00:00
10:00 PM,64.4,62.6,94,30.33,6.2,North,11.5,-,N/A,,Scattered Clouds,360,2013-08-28 04:00:00
11:00 PM,64.4,62.6,94,30.30,6.2,North,11.5,-,N/A,,Scattered Clouds,360,2013-08-28 05:00:00